User: anonymous   Login
Location: ????????
(55.1591°N, 39.1782°E)
Time: 17:57:49
(UTC+00:00)
Language:

Cosmos 1092 Rocket - Orbit

View from above orbital plane
View from above orbital plane
View from above satellite
View from above satellite

Ground track
Ground track

The orbit data is extracted from the following two-line orbital elements,

1 11327U 79030B   24170.81364763  .00000010  00000-0 -53621-5 0  9999
2 11327  82.9498 196.0909 0026813 214.4121 318.7910 13.77079310271035
Epoch (UTC): 18 June 2024 19:31:39
Eccentricity: 0.0026813
inclination: 82.9498°
perigee height: 954 km
apogee height: 994 km
right ascension of ascending node: 196.0909°
argument of perigee: 214.4121°
revolutions per day: 13.77079310
mean anomaly at epoch: 318.7910°
orbit number at epoch: 27103

The dashed part of the orbit path shows where the satellite is in the earth's shadow,  

DLR